[[{"header":{"parameterUnit":"m.s-1","parameterCategory":1,"la1":30.2991,"la2":30.254,"lo1":-89.0895,"lo2":-89.0444,"dy":0.0017,"dx":0.0017,"nx":28,"ny":28,"refTime":"2024-06-14T03:00:00:Z","depth":0,"parameterNumber":2,"parameterNumberName":"U-component_of_WINDS"},"data":[0,0,0,0,0,0,0,0,0,0,0,0,0,0,0,0,0,0,0,0,0,0,0,0,0,0,0,0,0,0,0,0,0,0,0,0,0,0,0,0,0,0,0,0,0,0,0,0,0,0,0,0,0,0,0,0,0,0,-2.7196,-2.7195,0,-2.7149,-2.7149,-2.7148,-2.7105,-2.7105,-2.7104,-2.7104,-2.7055,-2.7054,-2.7054,0,0,0,0,0,0,0,0,0,0,0,0,0,-2.7248,-2.7247,-2.7196,-2.7195,-2.7195,-2.7149,-2.7149,-2.7148,-2.7105,-2.7105,-2.7104,-2.7103,-2.7055,-2.7054,-2.7053,0,0,0,0,0,0,0,0,0,0,0,0,0,-2.7216,-2.7247,-2.7196,-2.7168,-2.7165,-2.715,-2.7149,-2.7148,-2.7105,-2.7105,-2.7104,-2.7103,-2.7056,-2.7055,-2.7053,-2.7062,0,0,-2.705,-2.7049,0,0,0,0,0,0,0,0,-2.7218,-2.7214,-2.7172,-2.717,-2.7166,-2.7132,-2.7149,-2.7119,-2.7106,-2.7128,-2.7104,-2.7103,-2.7081,-2.7078,-2.7071,-2.706,-2.7057,-2.705,-2.7049,-2.7048,-2.7048,0,0,0,0,0,0,0,-2.722,-2.7216,-2.7177,-2.7172,-2.7168,-2.7158,-2.7152,-2.7143,-2.711,-2.7126,-2.7123,-2.7118,-2.708,-2.7072,-2.707,-2.7057,-2.705,-2.7049,-2.7048,-2.7047,-2.7053,-2.7053,0,0,0,0,0,0,-2.7226,-2.7218,-2.7179,-2.7176,-2.7191,-2.7158,-2.7151,-2.7144,-2.711,-2.7104,-2.7119,-2.7116,-2.7075,-2.7071,-2.7068,-2.7077,-2.7048,-2.7047,-2.7047,-2.7052,-2.7053,-2.7054,0,0,0,0,0,0,-2.7228,-2.7223,-2.7181,-2.7196,-2.719,-2.7157,-2.7149,-2.7144,-2.7136,-2.7104,-2.7098,-2.7117,-2.7074,-2.7069,-2.7064,-2.7074,-2.7047,-2.7046,-2.7051,-2.7052,-2.7053,-2.7094,0,0,0,0,0,0,-2.7229,-2.7224,-2.7226,-2.7196,-2.7189,-2.7178,-2.715,-2.7143,-2.7134,-2.7131,-2.7101,-2.7096,-2.7073,-2.7066,-2.7063,-2.7072,-2.7045,-2.705,-2.7051,-2.7053,-2.7091,-2.7096,-2.71,0,0,0,0,0,-2.7231,-2.7239,-2.7227,-2.7222,-2.7191,-2.7178,-2.7174,-2.7148,-2.7135,-2.7138,-2.7118,-2.7097,-2.7074,-2.7066,-2.7062,-2.7071,-2.7049,-2.7051,-2.7053,-2.7089,-2.7095,-2.71,0,0,0,0,0,0,-2.7269,-2.7234,-2.722,-2.7218,-2.7202,-2.7171,-2.7173,-2.7155,-2.7141,-2.7138,-2.7107,-2.71,-2.7099,-2.7085,-2.7076,-2.7079,-2.7059,-2.706,-2.7088,-2.7093,-2.7098,-2.7101,-2.7044,0,0,0,0,0,-2.7278,-2.727,-2.724,-2.7241,-2.7234,-2.7205,-2.7198,-2.718,-2.7162,-2.7154,-2.7133,-2.7116,-2.7105,-2.7099,-2.7087,-2.709,-2.7083,-2.7094,-2.7099,-2.7103,-2.7104,-2.7106,-2.7111,-2.706,-2.706,-2.706,0,0,-2.7294,-2.7274,-2.7271,-2.7248,-2.7233,-2.7226,-2.7199,-2.7192,-2.7187,-2.7153,-2.7147,-2.7132,-2.7111,-2.711,-2.7109,-2.7098,-2.7117,-2.7105,-2.7108,-2.7107,-2.7109,-2.7113,-2.7118,-2.7061,-2.7061,-2.7061,0,0,-2.7321,-2.7305,-2.7305,-2.7292,-2.727,-2.7252,-2.7252,-2.7225,-2.7213,-2.7207,-2.7182,-2.7176,-2.7158,-2.7144,-2.7135,-2.7161,-2.7142,-2.7158,-2.7181,-2.7184,-2.7188,-2.7192,-2.7202,-2.7206,-2.716,-2.716,-2.716,0,-2.7344,-2.7333,-2.7307,-2.7303,-2.7294,-2.7265,-2.7265,-2.7253,-2.7228,-2.7223,-2.7212,-2.719,-2.7174,-2.7171,-2.7177,-2.7171,-2.7171,-2.716,-2.719,-2.7193,-2.7196,-2.7205,-2.7209,-2.7162,-2.7162,-2.7162,-2.7161,0,-2.7363,-2.7356,-2.7359,-2.7338,-2.7329,-2.7327,-2.7302,-2.7297,-2.7281,-2.7264,-2.726,-2.7239,-2.7224,-2.7222,-2.7205,-2.7218,-2.7212,-2.7196,-2.7175,-2.7203,-2.7212,-2.7215,-2.7165,-2.7164,-2.7164,-2.7163,0,0,-2.741,-2.7377,-2.7378,-2.7369,-2.7345,-2.7339,-2.7337,-2.7323,-2.732,-2.7305,-2.7302,-2.729,-2.7276,-2.7265,-2.7247,-2.725,-2.7274,-2.7234,-2.7233,-2.7242,-2.7287,-2.7299,-2.7304,-2.7261,-2.7262,-2.7262,-2.7289,0,-2.7432,-2.7426,-2.7405,-2.7406,-2.74,-2.7373,-2.7372,-2.7357,-2.7343,-2.7336,-2.7319,-2.7311,-2.7293,-2.7287,-2.7288,-2.727,-2.7282,-2.7268,-2.7259,-2.7259,-2.7265,-2.7308,-2.732,-2.7346,-2.7292,-2.7293,-2.7293,0,-2.7457,-2.7446,-2.7446,-2.7425,-2.7421,-2.742,-2.7407,-2.7401,-2.7385,-2.7374,-2.7365,-2.7345,-2.7343,-2.7325,-2.7322,-2.7313,-2.7308,-2.73,-2.73,-2.7297,-2.7277,-2.7307,-2.7353,-2.7358,-2.7298,-2.7297,-2.7297,0,-2.7492,-2.7476,-2.7475,-2.7468,-2.7443,-2.7443,-2.7433,-2.7416,-2.741,-2.7399,-2.7395,-2.7383,-2.7377,-2.7369,-2.7348,-2.7337,-2.7348,-2.7327,-2.7339,-2.734,-2.7342,-2.7342,-2.7388,-2.734,-2.734,-2.734,-2.734,0,-2.7519,-2.752,-2.7491,-2.749,-2.7492,-2.7468,-2.747,-2.7457,-2.7443,-2.744,-2.7417,-2.7415,-2.7388,-2.7383,-2.7366,-2.7367,-2.7364,-2.7356,-2.7352,-2.7358,-2.7359,-2.7354,-2.7351,-2.7341,-2.734,-2.734,-2.734,0,-2.7556,-2.7537,-2.7534,-2.7511,-2.7506,-2.7508,-2.7489,-2.7488,-2.7474,-2.747,-2.7468,-2.7445,-2.7438,-2.7417,-2.7405,-2.7394,-2.74,-2.7391,-2.7405,-2.7402,-2.7416,-2.7415,-2.746,-2.7465,-2.7414,-2.7414,-2.7415,0,-2.7574,-2.7575,-2.7554,-2.7551,-2.7541,-2.7536,-2.7531,-2.7508,-2.7504,-2.7488,-2.7489,-2.7481,-2.7473,-2.7464,-2.7446,-2.7437,-2.7429,-2.7445,-2.7427,-2.7434,-2.7429,-2.7429,-2.743,-2.7449,-2.7449,-2.745,-2.745,0,-2.7609,-2.76,-2.7593,-2.7583,-2.7578,-2.7569,-2.7559,-2.7558,-2.7533,-2.7529,-2.7523,-2.7517,-2.7506,-2.7498,-2.7488,-2.7477,-2.746,-2.7457,-2.7459,-2.7465,-2.7473,-2.747,-2.7416,-2.7455,-2.7455,-2.7455,-2.7454,-2.7454,-2.7637,-2.7637,-2.7623,-2.7617,-2.7608,-2.76,-2.7598,-2.7585,-2.7579,-2.7568,-2.7556,-2.7552,-2.7539,-2.7522,-2.7514,-2.7511,-2.7501,-2.7504,-2.7505,-2.7506,-2.751,-2.7475,-2.7509,-2.7509,-2.7509,-2.7508,-2.7508,0,-2.767,-2.7661,-2.7656,-2.7643,-2.7639,-2.7625,-2.7614,-2.7611,-2.7608,-2.7597,-2.7591,-2.7585,-2.7579,-2.7562,-2.7555,-2.7556,-2.7548,-2.7554,-2.7554,-2.7552,-2.7518,-2.7517,-2.7561,-2.7561,-2.7561,-2.7561,-2.7561,-2.7561,-2.7687,-2.7688,-2.7678,-2.7675,-2.7665,-2.7661,-2.7656,-2.765,-2.7641,-2.7636,-2.7631,-2.7621,-2.7608,-2.76,-2.7594,-2.759,-2.7588,-2.7598,-2.759,-2.7559,-2.7554,-2.7549,-2.7548,-2.7597,-2.7597,-2.7624,-2.7625,-2.7625]},{"header":{"parameterUnit":"m.s-1","parameterCategory":1,"la1":30.2991,"la2":30.254,"lo1":-89.0895,"lo2":-89.0444,"dy":0.0017,"dx":0.0017,"nx":28,"ny":28,"refTime":"2024-06-14T03:00:00:Z","depth":0,"parameterNumber":3,"parameterNumberName":"V-component_of_WINDS"},"data":[0,0,0,0,0,0,0,0,0,0,0,0,0,0,0,0,0,0,0,0,0,0,0,0,0,0,0,0,0,0,0,0,0,0,0,0,0,0,0,0,0,0,0,0,0,0,0,0,0,0,0,0,0,0,0,0,0,0,1.3898,1.3899,0,1.3975,1.3976,1.3977,1.4078,1.408,1.4082,1.4083,1.4156,1.4156,1.4157,0,0,0,0,0,0,0,0,0,0,0,0,0,1.3831,1.3832,1.3898,1.3899,1.39,1.3975,1.3976,1.3977,1.4078,1.408,1.4082,1.4084,1.4156,1.4156,1.4157,0,0,0,0,0,0,0,0,0,0,0,0,0,1.3879,1.3832,1.3897,1.3959,1.3966,1.3975,1.3976,1.3977,1.4077,1.408,1.4083,1.4085,1.4156,1.4156,1.4157,1.411,0,0,1.4158,1.4159,0,0,0,0,0,0,0,0,1.3876,1.3881,1.3949,1.3955,1.3962,1.402,1.3979,1.4021,1.4077,1.4035,1.4083,1.4086,1.4108,1.4113,1.4122,1.4113,1.4116,1.4158,1.4159,1.4159,1.4159,0,0,0,0,0,0,0,1.3873,1.3879,1.3928,1.395,1.3958,1.3981,1.3991,1.3988,1.4056,1.4039,1.4046,1.4054,1.4112,1.4121,1.4124,1.4117,1.4158,1.4159,1.4159,1.416,1.4072,1.407,0,0,0,0,0,0,1.3861,1.3875,1.3926,1.393,1.3925,1.398,1.3991,1.3998,1.4057,1.4068,1.4052,1.4059,1.4119,1.4123,1.4127,1.4074,1.4159,1.416,1.416,1.4075,1.4071,1.4069,0,0,0,0,0,0,1.3859,1.3865,1.3923,1.3905,1.3914,1.3979,1.3986,1.3999,1.4008,1.4067,1.4079,1.4049,1.4121,1.4126,1.4113,1.4078,1.416,1.416,1.4078,1.4074,1.407,1.3968,0,0,0,0,0,0,1.3857,1.3863,1.3848,1.3904,1.3915,1.3909,1.3984,1.3998,1.4009,1.4018,1.4067,1.4077,1.4123,1.4112,1.4114,1.408,1.4161,1.4081,1.4076,1.4071,1.3974,1.3961,1.3949,0,0,0,0,0,1.3854,1.3815,1.3846,1.3852,1.3897,1.3907,1.3913,1.3968,1.4006,1.3989,1.4027,1.4076,1.4082,1.411,1.4113,1.4078,1.4084,1.4077,1.4072,1.398,1.3963,1.3949,0,0,0,0,0,0,1.375,1.3823,1.3859,1.3837,1.3865,1.3924,1.3905,1.3949,1.3965,1.3973,1.404,1.405,1.4028,1.4053,1.4082,1.4035,1.409,1.4084,1.4019,1.4004,1.3991,1.3984,1.4161,0,0,0,0,0,1.3725,1.373,1.3793,1.3767,1.3779,1.3839,1.3846,1.3887,1.3917,1.3929,1.3966,1.3993,1.4001,1.4004,1.4015,1.398,1.399,1.3958,1.3945,1.3934,1.3927,1.3908,1.3893,1.4049,1.4049,1.4049,0,0,1.3672,1.3713,1.3711,1.3747,1.3774,1.3774,1.3849,1.3846,1.3846,1.3928,1.3918,1.3946,1.398,1.3955,1.3946,1.3975,1.3887,1.3926,1.3917,1.3916,1.39,1.3885,1.3872,1.4045,1.4046,1.4046,0,0,1.3576,1.3609,1.359,1.3615,1.3656,1.3696,1.3691,1.3744,1.3766,1.3758,1.3818,1.3819,1.3832,1.3853,1.3865,1.3777,1.3821,1.3779,1.371,1.3691,1.3678,1.3668,1.3633,1.362,1.3772,1.3772,1.3772,0,1.3505,1.351,1.3574,1.3568,1.358,1.3657,1.3637,1.3658,1.3698,1.3704,1.3737,1.3754,1.3783,1.3762,1.3741,1.375,1.3744,1.3772,1.3676,1.3665,1.3656,1.3624,1.3611,1.3766,1.3767,1.3768,1.3768,0,1.3419,1.3421,1.3401,1.344,1.3451,1.3438,1.3497,1.35,1.354,1.3576,1.3565,1.3603,1.3621,1.362,1.3659,1.3605,1.3621,1.3664,1.372,1.3635,1.3605,1.3594,1.3758,1.376,1.3762,1.3763,0,0,1.3257,1.3332,1.3323,1.3341,1.3391,1.3393,1.3383,1.3403,1.3403,1.3429,1.3419,1.3429,1.3469,1.3482,1.3524,1.3507,1.3431,1.3552,1.3554,1.3525,1.3371,1.3336,1.3321,1.3463,1.3461,1.3459,1.3367,0,1.3167,1.3155,1.3212,1.3184,1.3186,1.3259,1.325,1.3278,1.3311,1.3316,1.3353,1.3357,1.3411,1.342,1.3407,1.3443,1.3401,1.3451,1.3451,1.345,1.3437,1.3306,1.327,1.3181,1.3357,1.3355,1.3353,0,1.3061,1.3082,1.3054,1.3105,1.3108,1.3098,1.3121,1.3126,1.3159,1.3184,1.32,1.3248,1.3239,1.3295,1.3282,1.3315,1.3319,1.3337,1.3335,1.3334,1.3394,1.3299,1.3155,1.314,1.3337,1.3338,1.3339,0,1.2941,1.2963,1.2949,1.2962,1.3022,1.3013,1.3037,1.3073,1.3081,1.3101,1.3106,1.3124,1.3132,1.3143,1.3194,1.3231,1.3174,1.3235,1.3192,1.319,1.3173,1.3173,1.3024,1.3181,1.3181,1.3182,1.3182,0,1.2833,1.2812,1.2896,1.2886,1.2865,1.2931,1.2906,1.2938,1.2969,1.2965,1.303,1.3025,1.3095,1.3096,1.3136,1.3117,1.3122,1.314,1.315,1.3132,1.3129,1.3133,1.3139,1.3178,1.3179,1.318,1.318,0,1.2694,1.275,1.2739,1.2797,1.2811,1.2792,1.2841,1.2833,1.2872,1.2866,1.2869,1.2928,1.2933,1.2987,1.3004,1.303,1.2994,1.3018,1.2983,1.299,1.2943,1.2945,1.2788,1.2769,1.2941,1.2939,1.2938,0,1.262,1.2606,1.2663,1.2666,1.2688,1.2692,1.2701,1.2765,1.2771,1.2808,1.2795,1.2807,1.2818,1.2823,1.2866,1.2879,1.2901,1.2846,1.2903,1.2885,1.2896,1.2895,1.2893,1.2832,1.283,1.2828,1.2827,0,1.2481,1.2509,1.2521,1.2542,1.2551,1.257,1.2593,1.2591,1.2662,1.2665,1.2673,1.2682,1.27,1.2709,1.2729,1.2752,1.2799,1.2809,1.2799,1.2778,1.2757,1.2765,1.2946,1.2811,1.2813,1.2814,1.2815,1.2815,1.237,1.236,1.2399,1.2409,1.2433,1.2453,1.2448,1.2487,1.2495,1.2516,1.2553,1.2554,1.2586,1.2619,1.2638,1.2638,1.2667,1.2653,1.2649,1.2644,1.2633,1.2761,1.2642,1.2643,1.2643,1.2644,1.2644,0,1.2231,1.226,1.2269,1.23,1.2307,1.2355,1.2383,1.2385,1.2386,1.2413,1.2424,1.2431,1.2441,1.2485,1.2499,1.249,1.2512,1.2491,1.249,1.2494,1.2608,1.2614,1.2473,1.2473,1.2473,1.2473,1.2473,1.2473,1.216,1.2145,1.2178,1.2175,1.2204,1.2207,1.2218,1.2236,1.2258,1.2263,1.2272,1.2302,1.2336,1.2352,1.2362,1.2375,1.2375,1.2346,1.2365,1.247,1.2486,1.2502,1.2507,1.2346,1.2346,1.2251,1.225,1.2249]}]]